FW3961 Weather Reports


Display with metric or nautical units.
time (UTC)temp
F
wind
direction
speed
MPH
gust
MPH
rain 1hr
in
rain 24hr
in
rain mn
in
humidity
%
barometer
mb
20260507195704 67 321 2.0 4.0 0.00 0.00 0.00 63 1020.5
20260507195204 67 271 1.0 4.0 0.00 0.00 0.00 64 1020.5
20260507194705 67 21 2.0 4.0 0.00 0.00 0.00 63 1020.5
20260507194203 67 270 2.0 4.0 0.00 0.00 0.00 62 1020.6
20260507193704 67 19 2.0 4.0 0.00 0.00 0.00 63 1020.7
20260507193204 67 178 2.0 5.0 0.00 0.00 0.00 64 1020.5
20260507192704 67 333 2.0 5.0 0.00 0.00 0.00 63 1020.7
20260507192200 67 325 2.0 4.0 0.00 0.00 0.00 63 1020.7
20260507191700 67 196 2.0 4.0 0.00 0.00 0.00 63 1020.8
20260507191200 67 294 1.0 5.0 0.00 0.00 0.00 64 1020.8
20260507190659 66 280 1.0 5.0 0.00 0.00 0.00 68 1021.0
20260507190205 65 132 1.0 4.0 0.00 0.00 0.00 66 1021.0
20260507185704 64 130 1.0 4.0 0.00 0.00 0.00 68 1021.1
20260507185205 64 5 1.0 4.0 0.00 0.00 0.00 68 1021.0
20260507184703 63 56 2.0 5.0 0.00 0.00 0.00 69 1021.0
20260507184205 62 80 2.0 5.0 0.00 0.00 0.00 69 1021.1
20260507183657 62 50 2.0 4.0 0.00 0.00 0.00 73 1021.1
20260507183151 61 0 2.0 4.0 0.00 0.00 0.00 71 1021.2
20260507182645 61 61 1.0 4.0 0.00 0.00 0.00 73 1021.2
20260507182140 61 302 1.0 4.0 0.00 0.00 0.00 73 1021.2
20260507181640 61 20 2.0 8.0 0.00 0.00 0.00 73 1021.3
20260507181636 61 113 2.0 5.0 0.00 0.00 0.00 73 1021.2
20260507180622 61 0 1.0 3.0 0.00 0.00 0.00 74 1021.3
20260507180116 60 65 1.0 3.0 0.00 0.00 0.00 75 1021.3
20260507175609 60 62 1.0 3.0 0.00 0.00 0.00 73 1021.3
20260507175107 60 33 1.0 4.0 0.00 0.00 0.00 73 1021.4
20260507175058 60 314 1.0 4.0 0.00 0.00 0.00 73 1021.4
20260507174050 60 80 1.0 4.0 0.00 0.00 0.00 73 1021.5
20260507173543 60 318 1.0 4.0 0.00 0.00 0.00 75 1021.4
20260507173037 59 340 1.0 5.0 0.00 0.00 0.00 75 1021.5
20260507172533 59 0 1.0 5.0 0.00 0.00 0.00 75 1021.4
20260507172025 59 319 1.0 4.0 0.00 0.00 0.00 75 1021.5
20260507171520 59 282 1.0 3.0 0.00 0.00 0.00 76 1021.5
20260507171013 58 296 1.0 5.0 0.00 0.00 0.00 76 1021.4
20260507170507 58 58 1.0 5.0 0.00 0.00 0.00 77 1021.5
20260507170001 58 300 1.0 5.0 0.00 0.00 0.00 78 1021.4
20260507165456 58 5 2.0 4.0 0.00 0.00 0.00 77 1021.4
20260507164949 57 316 1.0 3.0 0.00 0.00 0.00 78 1021.3
20260507164443 57 221 1.0 3.0 0.00 0.00 0.00 78 1021.3
20260507163937 57 307 1.0 4.0 0.00 0.00 0.00 79 1021.4
20260507163432 56 331 1.0 4.0 0.00 0.00 0.00 79 1021.3
20260507162925 56 303 1.0 4.0 0.00 0.00 0.00 78 1021.3
20260507162420 56 342 1.0 4.0 0.00 0.00 0.00 80 1021.4
20260507161913 56 280 1.0 3.0 0.00 0.00 0.00 80 1021.4
20260507161407 56 270 1.0 3.0 0.00 0.00 0.00 79 1021.4
20260507160901 55 192 1.0 3.0 0.00 0.00 0.00 80 1021.4
20260507160355 55 289 1.0 3.0 0.00 0.00 0.00 79 1021.4
20260507155850 55 232 1.0 4.0 0.00 0.00 0.00 80 1021.5
20260507155343 55 324 1.0 4.0 0.00 0.00 0.00 80 1021.4
20260507154837 55 53 1.0 3.0 0.00 0.00 0.00 80 1021.5
20260507154331 55 22 1.0 3.0 0.00 0.00 0.00 80 1021.5
20260507153826 55 334 1.0 5.0 0.00 0.00 0.00 81 1021.4
20260507153320 54 12 2.0 5.0 0.00 0.00 0.00 80 1021.4
20260507152813 54 59 1.0 4.0 0.00 0.00 0.00 81 1021.3
20260507152312 54 252 1.0 3.0 0.00 0.00 0.00 81 1021.4
20260507152308 54 279 1.0 3.0 0.00 0.00 0.00 81 1021.3
20260507151256 54 55 1.0 3.0 0.00 0.00 0.00 81 1021.4
20260507150749 54 52 1.0 3.0 0.00 0.00 0.00 82 1021.4
20260507150244 54 325 0.0 3.0 0.00 0.00 0.00 82 1021.4
20260507145741 53 259 0.0 3.0 0.00 0.00 0.00 82 1021.3
20260507145737 53 267 0.0 2.0 0.00 0.00 0.00 82 1021.4
20260507144725 53 286 1.0 3.0 0.00 0.00 0.00 82 1021.4
20260507144219 53 298 1.0 3.0 0.00 0.00 0.00 82 1021.3
20260507143714 53 355 1.0 3.0 0.00 0.00 0.00 82 1021.3
20260507143548 53 306 0.0 2.0 0.00 0.00 0.00 83 1021.3
20260507143439 53 280 0.0 3.0 0.00 0.00 0.00 83 1021.3
20260507142155 53 306 0.0 2.0 0.00 0.00 0.00 83 1021.2
20260507141650 53 305 0.0 2.0 0.00 0.00 0.00 83 1021.2
20260507141147 52 294 0.0 2.0 0.00 0.00 0.00 84 1021.0
20260507141143 53 305 0.0 2.0 0.00 0.00 0.00 84 1021.1
20260507140133 52 294 0.0 2.0 0.00 0.00 0.00 84 1021.1
20260507135625 52 293 0.0 2.0 0.00 0.00 0.00 84 1021.1
20260507135119 52 293 0.0 2.0 0.00 0.00 0.00 84 1021.0
20260507134953 52 242 0.0 2.0 0.00 0.00 0.00 85 1020.9
20260507134843 52 298 0.0 2.0 0.00 0.00 0.00 84 1021.0
20260507133601 52 242 0.0 2.0 0.00 0.00 0.00 85 1021.0
20260507133055 52 321 0.0 2.0 0.00 0.00 0.00 85 1021.0
20260507132549 52 321 0.0 2.0 0.00 0.00 0.00 85 1021.0
20260507132045 53 321 0.0 2.0 0.00 0.00 0.00 86 1021.0
20260507131545 53 326 0.0 1.0 0.00 0.00 0.00 86 1021.0
20260507131045 53 326 0.0 2.0 0.00 0.00 0.00 86 1021.1
20260507130544 53 326 0.0 2.0 0.00 0.00 0.00 86 1021.1
20260507130041 53 284 0.0 1.0 0.00 0.00 0.00 86 1021.1
20260507125539 53 284 0.0 0.0 0.00 0.00 0.00 87 1021.1
20260507125038 53 284 0.0 0.0 0.00 0.00 0.00 87 1021.1
20260507124536 53 284 0.0 1.0 0.00 0.00 0.00 87 1021.2
20260507124036 53 284 0.0 1.0 0.00 0.00 0.00 87 1021.2
20260507123536 53 284 0.0 1.0 0.00 0.00 0.00 87 1021.1
20260507123038 53 284 0.0 1.0 0.00 0.00 0.00 87 1021.2
20260507122536 53 284 0.0 2.0 0.00 0.00 0.00 87 1021.2
20260507122037 53 284 0.0 2.0 0.00 0.00 0.00 87 1021.3
20260507121537 53 284 0.0 1.0 0.00 0.00 0.00 87 1021.3
20260507121036 53 284 0.0 1.0 0.00 0.00 0.00 87 1021.3
20260507120536 53 284 0.0 2.0 0.00 0.00 0.00 87 1021.3
20260507120037 53 284 0.0 2.0 0.00 0.00 0.00 87 1021.4
20260507115537 53 284 0.0 1.0 0.00 0.00 0.00 87 1021.4
20260507115416 53 284 0.0 1.0 0.00 0.00 0.00 87 1021.4
20260507115308 53 284 0.0 0.0 0.00 0.00 0.00 87 1021.4
20260507114036 53 284 0.0 1.0 0.00 0.00 0.00 87 1021.4
20260507113536 53 284 0.0 1.0 0.00 0.00 0.00 87 1021.5
20260507113037 53 284 0.0 1.0 0.00 0.00 0.00 87 1021.5
20260507112536 53 284 0.0 2.0 0.00 0.00 0.00 86 1021.5
20260507112037 53 284 0.0 2.0 0.00 0.00 0.00 86 1021.6
20260507111541 53 282 0.0 3.0 0.00 0.00 0.00 86 1021.6
20260507111536 53 284 0.0 2.0 0.00 0.00 0.00 86 1021.6
20260507110536 53 282 0.0 3.0 0.00 0.00 0.00 86 1021.6
20260507110037 53 271 0.0 2.0 0.00 0.00 0.00 86 1021.6
20260507105535 53 271 0.0 2.0 0.00 0.00 0.00 86 1021.6
20260507105034 53 271 0.0 2.0 0.00 0.00 0.00 86 1021.7
20260507104534 53 271 0.0 2.0 0.00 0.00 0.00 86 1021.6
20260507104039 53 270 0.0 2.0 0.00 0.00 0.00 86 1021.7
20260507103536 53 271 0.0 2.0 0.00 0.00 0.00 86 1021.7
20260507103030 53 271 0.0 2.0 0.00 0.00 0.00 86 1021.7
20260507102524 53 267 0.0 2.0 0.00 0.00 0.00 86 1021.8
20260507102018 53 308 0.0 2.0 0.00 0.00 0.00 86 1021.8
20260507101512 53 308 0.0 2.0 0.00 0.00 0.00 86 1021.8
20260507101006 53 308 0.0 2.0 0.00 0.00 0.00 86 1021.8
20260507100501 53 261 0.0 1.0 0.00 0.00 0.00 86 1021.9
20260507095958 53 270 0.0 2.0 0.00 0.00 0.00 86 1021.9
20260507095954 53 270 0.0 1.0 0.00 0.00 0.00 86 1021.9
20260507094943 53 270 0.0 3.0 0.00 0.00 0.00 86 1022.0
20260507094436 53 270 0.0 3.0 0.00 0.00 0.00 86 1022.0
20260507093930 53 246 0.0 1.0 0.00 0.00 0.00 86 1022.1
20260507093424 53 246 0.0 1.0 0.00 0.00 0.00 86 1022.0
20260507092918 53 246 0.0 1.0 0.00 0.00 0.00 86 1022.1
20260507092412 53 246 0.0 2.0 0.00 0.00 0.00 86 1022.1
20260507091906 53 246 0.0 2.0 0.00 0.00 0.00 86 1022.2
20260507091407 53 257 0.0 2.0 0.00 0.00 0.00 86 1022.3
20260507091403 53 246 0.0 2.0 0.00 0.00 0.00 86 1022.2
20260507090349 53 271 0.0 2.0 0.00 0.00 0.00 86 1022.2
20260507085845 53 271 0.0 2.0 0.00 0.00 0.00 86 1022.3
20260507085837 53 271 1.0 3.0 0.00 0.00 0.00 85 1022.3
20260507084830 53 271 1.0 3.0 0.00 0.00 0.00 85 1022.3
20260507084325 53 281 0.0 2.0 0.00 0.00 0.00 85 1022.3
20260507083819 53 279 1.0 3.0 0.00 0.00 0.00 85 1022.3
20260507083315 53 273 1.0 3.0 0.00 0.00 0.00 85 1022.3
20260507083307 53 251 1.0 3.0 0.00 0.00 0.00 85 1022.2
20260507083146 53 302 1.0 3.0 0.00 0.00 0.00 85 1022.3
20260507081758 53 265 1.0 3.0 0.00 0.00 0.00 85 1022.2
20260507081754 53 217 0.0 3.0 0.00 0.00 0.00 85 1022.3
20260507080741 53 286 1.0 4.0 0.00 0.00 0.00 85 1022.4
20260507080236 53 260 1.0 4.0 0.00 0.00 0.00 85 1022.4
20260507075730 53 284 0.0 2.0 0.00 0.00 0.00 85 1022.4
20260507075224 53 283 1.0 2.0 0.00 0.00 0.00 85 1022.4
20260507074718 53 313 1.0 3.0 0.00 0.00 0.00 85 1022.3
20260507074213 53 192 1.0 3.0 0.00 0.00 0.00 85 1022.4
20260507073706 53 332 0.0 3.0 0.00 0.00 0.00 85 1022.4
20260507073200 53 355 1.0 3.0 0.00 0.00 0.00 85 1022.4
20260507072654 53 300 1.0 4.0 0.00 0.00 0.00 85 1022.4
20260507072152 53 245 1.0 4.0 0.00 0.00 0.00 85 1022.3
20260507072148 53 292 1.0 4.0 0.00 0.00 0.00 85 1022.3
20260507071136 53 200 0.0 2.0 0.00 0.00 0.00 85 1022.3
20260507070630 53 199 0.0 2.0 0.00 0.00 0.00 85 1022.3
20260507070123 53 215 0.0 2.0 0.00 0.00 0.00 85 1022.3
20260507065619 53 217 0.0 3.0 0.00 0.00 0.00 85 1022.3
20260507065113 53 355 1.0 3.0 0.00 0.00 0.00 85 1022.3
20260507064607 53 185 0.0 2.0 0.00 0.00 0.00 85 1022.3
20260507064102 53 187 0.0 1.0 0.00 0.00 0.00 85 1022.3
20260507063602 53 213 0.0 2.0 0.00 0.00 0.00 85 1022.3
20260507063059 53 203 0.0 2.0 0.00 0.00 0.00 85 1022.4
20260507062557 53 269 0.0 3.0 0.00 0.00 0.00 85 1022.4
20260507062056 53 348 0.0 3.0 0.00 0.00 0.00 85 1022.4
20260507061555 53 267 1.0 2.0 0.00 0.00 0.00 85 1022.4
20260507061052 53 259 1.0 3.0 0.00 0.00 0.00 85 1022.4
20260507060551 52 300 1.0 5.0 0.00 0.00 0.00 85 1022.5
20260507060050 52 270 1.0 5.0 0.00 0.00 0.00 85 1022.5
20260507055551 52 290 1.0 3.0 0.00 0.00 0.00 85 1022.5
20260507055049 52 217 1.0 4.0 0.00 0.00 0.00 84 1022.5
20260507054553 53 323 1.0 4.0 0.00 0.00 0.00 84 1022.4
20260507054049 53 293 1.0 3.0 0.00 0.00 0.00 84 1022.3
20260507053553 53 275 1.0 5.0 0.00 0.00 0.00 84 1022.4
20260507053549 53 261 1.0 5.0 0.00 0.00 0.00 84 1022.4
20260507052547 53 257 1.0 5.0 0.00 0.00 0.00 84 1022.4
20260507052047 53 33 1.0 5.0 0.00 0.00 0.00 84 1022.4
20260507051551 53 246 1.0 4.0 0.00 0.00 0.00 84 1022.4
20260507051546 53 319 1.0 4.0 0.00 0.00 0.00 84 1022.4
20260507050545 53 233 1.0 7.0 0.00 0.00 0.00 84 1022.4
20260507050049 53 293 1.0 4.0 0.00 0.00 0.00 83 1022.3
20260507050045 53 277 1.0 7.0 0.00 0.00 0.00 84 1022.2
20260507045045 53 99 1.0 3.0 0.00 0.00 0.00 83 1022.2
20260507044545 54 259 1.0 5.0 0.00 0.00 0.00 83 1022.2
20260507044044 54 209 1.0 5.0 0.00 0.00 0.00 83 1022.2
20260507043544 54 308 1.0 3.0 0.00 0.00 0.00 83 1022.1
20260507043040 54 252 0.0 3.0 0.00 0.00 0.00 83 1022.1
20260507042545 55 214 1.0 4.0 0.00 0.00 0.00 82 1022.1
20260507042540 54 207 0.0 3.0 0.00 0.00 0.00 83 1022.1
20260507041542 55 258 1.0 4.0 0.00 0.00 0.00 82 1022.1
20260507041041 55 306 1.0 3.0 0.00 0.00 0.00 81 1022.0
20260507040543 55 284 1.0 3.0 0.00 0.00 0.00 81 1021.9
20260507040041 56 199 1.0 6.0 0.00 0.00 0.00 81 1021.8
20260507035540 56 301 1.0 6.0 0.00 0.00 0.00 81 1021.8
20260507035040 56 258 1.0 5.0 0.00 0.00 0.00 81 1021.7
20260507034919 57 325 1.0 4.0 0.00 0.00 0.00 80 1021.6
20260507034811 56 248 1.0 5.0 0.00 0.00 0.00 80 1021.7
20260507034047 57 325 1.0 4.0 0.00 0.00 0.00 80 1021.6
20260507033543 57 315 1.0 2.0 0.00 0.00 0.00 80 1021.5
20260507033040 57 259 1.0 2.0 0.00 0.00 0.00 79 1021.5
20260507032545 58 220 1.0 4.0 0.00 0.00 0.00 78 1021.4
20260507032541 58 207 1.0 4.0 0.00 0.00 0.00 79 1021.4
20260507031539 58 275 1.0 5.0 0.00 0.00 0.00 78 1021.3
20260507031313 59 342 1.0 5.0 0.00 0.00 0.00 77 1021.3
20260507031048 59 342 1.0 5.0 0.00 0.00 0.00 77 1021.3
20260507031046 59 269 1.0 6.0 0.00 0.00 0.00 77 1021.3
20260507030038 60 180 1.0 4.0 0.00 0.00 0.00 76 1021.2
20260507030034 60 287 1.0 6.0 0.00 0.00 0.00 76 1021.2
20260507025034 60 209 2.0 5.0 0.00 0.00 0.00 75 1021.3
20260507024534 61 268 1.0 5.0 0.00 0.00 0.00 74 1021.2
20260507024034 61 301 1.0 4.0 0.00 0.00 0.00 75 1021.2
20260507023535 61 318 2.0 4.0 0.00 0.00 0.00 74 1021.2
20260507023028 62 323 1.0 4.0 0.00 0.00 0.00 73 1021.2
20260507022520 62 250 1.0 5.0 0.00 0.00 0.00 73 1021.1
20260507022014 63 321 2.0 5.0 0.00 0.00 0.00 73 1021.2
20260507021507 63 310 1.0 5.0 0.00 0.00 0.00 72 1021.2
20260507021003 63 206 1.0 5.0 0.00 0.00 0.00 72 1021.2
20260507020456 64 288 2.0 6.0 0.00 0.00 0.00 71 1021.2
20260507015949 64 301 2.0 6.0 0.00 0.00 0.00 71 1021.3
20260507015445 64 275 2.0 6.0 0.00 0.00 0.00 70 1021.3
20260507015440 65 290 2.0 7.0 0.00 0.00 0.00 70 1021.2
20260507014432 65 225 2.0 7.0 0.00 0.00 0.00 69 1021.3
20260507013928 65 302 2.0 7.0 0.00 0.00 0.00 70 1021.3
20260507013420 66 229 2.0 7.0 0.00 0.00 0.00 69 1021.2
20260507012914 66 190 2.0 9.0 0.00 0.00 0.00 68 1021.2
20260507012409 67 253 2.0 9.0 0.00 0.00 0.00 67 1021.1
20260507011902 67 28 2.0 6.0 0.00 0.00 0.00 67 1021.1
20260507011356 68 340 2.0 7.0 0.00 0.00 0.00 67 1021.0
20260507010849 68 229 2.0 7.0 0.00 0.00 0.00 66 1021.1
20260507010845 69 239 2.0 5.0 0.00 0.00 0.00 66 1021.2
20260507005838 69 291 2.0 5.0 0.00 0.00 0.00 65 1021.1
20260507005332 70 179 2.0 9.0 0.00 0.00 0.00 64 1021.1
20260507004828 70 223 2.0 9.0 0.00 0.00 0.00 64 1021.0
20260507004824 71 331 2.0 5.0 0.00 0.00 0.00 64 1021.0
20260507003813 71 298 2.0 6.0 0.00 0.00 0.00 63 1021.0
20260507003809 71 194 2.0 6.0 0.00 0.00 0.00 63 1021.0
20260507002802 71 305 2.0 5.0 0.00 0.00 0.00 64 1021.0
20260507002255 71 196 2.0 5.0 0.00 0.00 0.00 64 1021.0
20260507001750 72 306 2.0 5.0 0.00 0.00 0.00 64 1020.9
20260507001244 71 194 2.0 5.0 0.00 0.00 0.00 63 1020.8
20260507001105 71 275 2.0 5.0 0.00 0.00 0.00 64 1020.9
20260507001000 72 306 1.0 4.0 0.00 0.00 0.00 62 1020.9
20260507000607 72 232 1.0 5.0 0.00 0.00 0.00 64 1020.9
20260506235220 72 32 2.0 5.0 0.00 0.00 0.00 64 1020.8
20260506235216 71 188 1.0 5.0 0.00 0.00 0.00 62 1020.8
20260506234208 71 0 1.0 4.0 0.00 0.00 0.00 62 1020.8
20260506233701 71 200 1.0 3.0 0.00 0.00 0.00 62 1020.8
20260506233156 72 209 1.0 3.0 0.00 0.00 0.00 62 1020.8
20260506232650 72 243 1.0 3.0 0.00 0.00 0.00 61 1020.9
20260506232144 73 346 1.0 4.0 0.00 0.00 0.00 62 1020.9
20260506231638 73 313 1.0 4.0 0.00 0.00 0.00 64 1020.9
20260506231131 72 21 2.0 4.0 0.00 0.00 0.00 65 1020.9
20260506230626 72 134 2.0 4.0 0.00 0.00 0.00 63 1020.9
20260506230120 73 96 1.0 5.0 0.00 0.00 0.00 64 1020.9
20260506225614 73 148 1.0 5.0 0.00 0.00 0.00 63 1021.0
20260506225107 73 185 1.0 3.0 0.00 0.00 0.00 64 1021.1
20260506224603 73 200 1.0 3.0 0.00 0.00 0.00 64 1021.1
20260506224058 72 187 1.0 3.0 0.00 0.00 0.00 64 1021.2
20260506223550 73 187 1.0 3.0 0.00 0.00 0.00 62 1021.2
20260506223044 73 300 1.0 3.0 0.00 0.00 0.00 64 1021.3
20260506222537 72 227 1.0 4.0 0.00 0.00 0.00 63 1021.3
20260506222033 72 200 2.0 5.0 0.00 0.00 0.00 64 1021.3
20260506222028 72 144 1.0 5.0 0.00 0.00 0.00 64 1021.4
20260506221019 72 194 1.0 6.0 0.00 0.00 0.00 65 1021.4
20260506220520 71 126 1.0 6.0 0.00 0.00 0.00 67 1021.5
20260506220023 71 196 1.0 4.0 0.00 0.00 0.00 65 1021.5
20260506215519 71 236 1.0 4.0 0.00 0.00 0.00 65 1021.5
20260506215020 71 113 1.0 4.0 0.00 0.00 0.00 66 1021.3
20260506214520 71 134 2.0 3.0 0.00 0.00 0.00 67 1021.4
20260506214020 71 131 2.0 4.0 0.00 0.00 0.00 66 1021.4
20260506213524 70 248 1.0 4.0 0.00 0.00 0.00 68 1021.6
20260506213520 70 141 1.0 4.0 0.00 0.00 0.00 67 1021.5
20260506212519 69 171 1.0 4.0 0.00 0.00 0.00 69 1021.6
20260506212022 70 224 1.0 4.0 0.00 0.00 0.00 69 1021.7
20260506211516 69 158 1.0 3.0 0.00 0.00 0.00 71 1021.6
20260506211017 68 56 1.0 4.0 0.00 0.00 0.00 70 1021.7
20260506210518 68 5 2.0 4.0 0.00 0.00 0.00 70 1021.7
20260506210016 68 157 1.0 3.0 0.00 0.00 0.00 71 1021.8
20260506205516 68 211 1.0 3.0 0.00 0.00 0.00 71 1022.0
20260506205017 68 202 1.0 3.0 0.00 0.00 0.00 72 1021.9
20260506204515 68 212 1.0 3.0 0.00 0.00 0.00 72 1022.0
20260506204016 67 253 1.0 4.0 0.00 0.00 0.00 75 1022.0
20260506203516 67 134 2.0 4.0 0.00 0.00 0.00 74 1022.0
20260506203014 67 213 2.0 4.0 0.00 0.00 0.00 73 1022.0
20260506202513 67 252 2.0 4.0 0.00 0.00 0.00 76 1022.0
20260506202015 66 216 1.0 4.0 0.00 0.00 0.00 76 1022.0
20260506201514 65 172 2.0 7.0 0.00 0.00 0.00 77 1021.9
20260506201013 65 138 2.0 7.0 0.00 0.00 0.00 76 1022.0
20260506200514 65 121 1.0 4.0 0.00 0.00 0.00 76 1021.8
20260506200014 65 126 2.0 4.0 0.00 0.00 0.00 77 1022.0